Temperature
16 14 15 15 15 13 14 16 17 17 17 18 17 16 14 12 10 9 8 8 8 8 8 8 7 7 6 5 5 5 5 4 4 4 4 4 4 3 3 3 2 2 2 1
14 12 13 13 14 14 14 15 16 16 16 17 15 13 12 11 9 8 8 8 8 8 7 7 6 6 5 5 4 4 4 4 4 4 3 3 3 3 2 2 2 1 1 0
15 12 12 14 15 14 14 14 15 15 16 14 12 11 11 10 9 8 8 8 8 7 7 6 6 5 5 4 4 4 4 4 3 3 3 3 2 2 1 1 0 -0 -1 -1
14 12 12 17 13 13 14 14 14 13 13 12 11 9 9 9 9 8 8 8 7 7 6 6 5 5 4 4 4 3 3 3 3 3 2 2 1 1 0 -1 -1 -2 -2 -2
12 13 14 15 13 12 12 13 13 12 12 10 8 9 8 8 8 8 7 7 6 6 5 5 4 4 4 4 3 3 3 3 2 2 1 1 0 -0 -1 -2 -2 -2 -3 -3
11 11 12 15 12 10 12 13 12 11 10 9 9 11 11 8 8 7 7 6 6 5 5 4 4 3 3 3 3 2 2 2 2 1 0 -0 -1 -1 -2 -2 -3 -3 -4 -4
12 12 14 14 10 10 12 14 10 9 9 8 9 10 8 8 7 6 6 5 5 5 4 4 3 3 3 3 2 2 2 1 1 0 -0 -1 -1 -2 -3 -3 -4 -4 -5 -5
11 11 12 11 10 12 13 10 9 8 8 8 8 8 7 6 6 5 5 5 4 4 4 4 3 3 2 2 2 1 1 0 0 -0 -1 -1 -2 -3 -3 -4 -4 -5 -5 -6
12 13 11 9 10 10 9 9 8 8 8 8 8 7 6 6 5 5 4 4 4 4 4 3 3 2 2 2 1 0 -0 -0 -1 -1 -2 -2 -3 -4 -4 -5 -5 -6 -6 -6
10 10 9 8 8 9 9 8 9 9 8 8 7 6 5 5 4 4 4 4 3 3 3 3 3 2 2 1 0 -0 -1 -1 -2 -2 -2 -3 -4 -5 -5 -6 -6 -6 -7 -7
10 10 8 8 8 8 8 8 8 8 7 7 6 5 5 4 4 4 4 3 3 3 2 2 2 2 1 1 -0 -1 -2 -2 -2 -3 -3 -4 -4 -5 -6 -6 -7 -7 -7 -7
11 10 9 9 8 8 8 7 7 7 6 6 5 5 4 4 4 3 3 3 3 2 2 2 1 1 1 -0 -1 -2 -2 -3 -3 -4 -4 -5 -5 -6 -6 -6 -7 -7 -7 -7
8 8 8 7 7 7 7 6 6 6 5 5 4 4 4 3 3 3 3 2 2 2 1 1 0 0 -0 -1 -2 -2 -3 -3 -4 -4 -5 -5 -6 -6 -6 -6 -7 -7 -7 -7
7 7 6 6 6 6 6 5 5 5 4 4 4 3 3 3 3 2 2 2 1 1 1 0 -0 -0 -1 -2 -2 -3 -3 -4 -4 -5 -5 -6 -6 -7 -7 -7 -7 -8 -7 -7
5 5 5 5 5 5 4 4 4 4 3 3 3 3 2 2 2 2 2 1 1 0 0 -0 -1 -1 -2 -2 -3 -3 -4 -4 -5 -5 -6 -7 -7 -7 -7 -8 -8 -8 -8 -8
4 4 4 4 4 4 3 3 3 3 3 3 2 2 2 2 1 1 1 0 -0 -0 -1 -1 -1 -2 -2 -3 -3 -4 -4 -5 -5 -6 -6 -7 -7 -7 -8 -8 -8 -8 -8 -8
3 3 3 3 3 3 3 3 3 2 2 2 2 1 1 1 1 0 0 -0 -1 -1 -1 -2 -2 -2 -3 -3 -4 -5 -5 -5 -6 -6 -7 -7 -8 -8 -8 -8 -9 -9 -9 -9
3 3 3 3 3 3 2 2 2 2 2 1 1 1 0 0 -0 -1 -1 -1 -1 -1 -1 -2 -3 -3 -3 -4 -5 -5 -6 -6 -6 -7 -7 -8 -8 -8 -8 -9 -9 -9 -9 -9
2 2 2 2 2 2 2 2 1 1 1 1 0 -0 -0 -1 -1 -1 -2 -2 -2 -2 -2 -3 -3 -4 -4 -5 -6 -6 -6 -6 -7 -7 -8 -8 -8 -9 -9 -9 -10 -10 -9 -9
1 2 2 2 1 1 1 1 1 0 0 -0 -1 -1 -1 -1 -2 -2 -2 -3 -2 -3 -3 -4 -4 -5 -5 -6 -6 -6 -7 -7 -7 -8 -8 -8 -9 -9 -10 -10 -10 -10 -10 -9
1 1 1 1 1 1 1 0 -0 -0 -1 -1 -1 -2 -2 -2 -2 -3 -3 -3 -3 -4 -4 -5 -5 -6 -6 -6 -7 -7 -7 -7 -8 -8 -9 -9 -9 -10 -10 -10 -10 -10 -10 -10
1 1 0 0 0 0 -0 -0 -1 -1 -1 -2 -2 -2 -2 -3 -3 -3 -3 -4 -4 -5 -5 -6 -6 -6 -7 -7 -7 -7 -8 -8 -9 -9 -9 -10 -10 -10 -10 -10 -10 -10 -10 -10
0 -0 -0 -0 -1 -1 -1 -1 -1 -2 -2 -2 -2 -3 -3 -3 -4 -5 -5 -5 -5 -6 -6 -7 -7 -7 -7 -8 -8 -8 -9 -9 -9 -10 -10 -10 -11 -11 -11 -11 -10 -10 -10 -10
-1 -1 -1 -1 -1 -1 -1 -1 -2 -2 -2 -2 -3 -3 -4 -4 -4 -5 -6 -6 -6 -7 -7 -7 -7 -8 -8 -8 -9 -9 -9 -10 -10 -10 -11 -11 -11 -11 -11 -11 -11 -11 -10 -10
-1 -1 -1 -2 -2 -2 -2 -2 -3 -3 -3 -3 -3 -4 -5 -5 -6 -6 -6 -7 -7 -7 -8 -8 -8 -8 -9 -9 -9 -10 -10 -10 -11 -11 -11 -11 -11 -11 -11 -11 -11 -11 -10 -10
-2 -2 -2 -2 -2 -3 -3 -3 -4 -4 -4 -5 -5 -5 -6 -6 -7 -7 -8 -8 -8 -8 -9 -9 -9 -10 -10 -10 -10 -11 -11 -11 -11 -11 -11 -11 -11 -11 -11 -11 -11 -11 -10 -10
-2 -2 -2 -2 -3 -3 -4 -4 -5 -5 -6 -6 -6 -7 -7 -8 -8 -8 -9 -9 -9 -9 -10 -10 -10 -11 -11 -11 -11 -11 -11 -11 -12 -12 -12 -12 -12 -11 -11 -11 -11 -10 -10 -10
Wind_Speed
4 1 4 7 9 13 15 15 14 16 18 16 11 10 10 11 11 12 11 10 8 7 5 3 2 2 2 4 5 6 8 9 10 11 12 13 13 14 15 15 16 16 17 18
4 2 5 7 13 16 17 18 20 22 22 13 6 6 8 11 12 12 11 10 8 6 4 3 2 3 4 5 6 7 9 11 11 12 12 13 14 15 16 16 17 17 17 18
5 2 3 10 14 17 12 13 13 17 14 4 5 6 8 10 11 12 10 9 7 5 4 3 3 4 6 7 8 9 11 12 12 12 13 14 15 16 17 18 18 18 18 19
3 4 9 6 2 5 11 14 15 13 7 4 4 4 4 7 10 10 8 7 5 3 3 3 3 5 6 8 9 10 12 13 13 13 14 15 16 17 18 17 18 18 19 20
5 7 10 8 5 6 8 9 10 13 10 6 7 5 4 4 6 6 6 5 3 2 3 3 4 6 7 9 10 12 13 14 14 14 15 16 17 19 18 18 18 18 19 20
6 6 8 5 4 4 3 7 5 8 10 11 10 8 6 6 6 6 5 3 2 2 3 5 6 6 9 11 12 13 14 15 15 16 16 18 19 19 18 18 18 19 19 19
12 11 10 2 6 8 6 4 4 8 11 13 10 3 7 8 6 5 4 3 3 3 4 6 6 7 10 12 13 14 14 15 16 16 17 18 18 17 18 18 19 19 20 18
9 10 10 7 9 9 3 2 5 8 10 10 7 7 7 6 5 4 4 3 3 4 6 7 7 8 11 14 14 14 15 16 17 18 16 15 17 18 18 18 19 19 18 18
10 7 1 7 6 2 1 4 6 8 8 9 7 6 6 5 5 4 3 3 3 5 8 9 9 9 13 15 15 15 16 18 18 18 17 16 17 18 17 16 15 15 15 16
6 7 5 6 6 4 4 5 6 7 8 8 7 6 6 5 4 3 3 4 4 6 9 11 11 12 14 15 15 16 17 18 17 17 17 16 14 14 14 14 15 15 16 16
7 5 3 6 8 6 6 6 7 7 6 7 7 6 5 4 4 3 4 5 6 8 10 13 14 15 15 16 16 17 18 17 17 15 16 16 15 14 15 15 16 17 17 17
7 5 5 3 4 8 9 8 9 8 6 5 5 5 4 4 3 4 5 6 8 10 12 14 15 16 17 16 16 17 16 16 14 14 14 14 15 16 16 18 24 26 26 24
2 2 2 2 4 6 7 8 7 7 7 6 5 4 3 3 4 6 7 9 10 12 13 15 16 17 17 16 15 16 16 16 14 14 14 14 15 16 17 18 20 23 25 26
4 4 3 4 4 6 7 8 7 6 5 5 4 3 3 4 6 8 9 10 11 13 15 16 16 17 17 16 15 16 16 15 14 13 14 14 15 15 16 17 18 16 19 23
4 4 4 5 7 7 7 7 7 5 4 3 2 3 4 6 8 10 11 11 12 14 15 16 17 18 17 16 15 16 15 13 12 13 14 14 15 15 15 17 17 17 17 18
5 5 7 8 8 8 7 6 5 4 3 3 4 5 6 8 10 11 12 12 13 15 16 16 17 18 16 15 15 14 13 16 16 14 14 14 14 15 15 16 16 16 16 16
8 7 8 8 7 7 6 5 4 3 3 4 5 6 7 9 11 13 13 13 13 15 16 16 17 16 15 14 14 13 13 14 17 15 13 14 14 15 15 15 16 16 16 17
6 6 7 7 7 6 4 3 2 3 4 5 6 7 9 11 13 14 15 15 15 16 16 16 15 15 15 15 13 12 12 13 13 14 14 14 15 15 15 15 16 17 16 17
7 7 6 6 5 4 2 2 3 4 5 6 7 9 11 12 13 14 14 15 16 17 15 14 17 17 16 16 15 12 13 14 14 14 14 17 17 15 15 15 15 16 16 15
7 6 6 4 3 1 1 3 4 6 7 7 9 11 12 13 13 13 14 14 13 13 14 16 16 15 15 15 16 13 14 14 15 15 14 14 15 15 15 15 15 15 15 15
5 4 3 1 1 2 4 5 6 8 9 9 10 12 13 14 13 13 13 14 14 13 14 18 14 13 13 14 17 14 14 14 14 14 14 14 15 15 15 15 15 15 15 14
2 1 1 2 4 5 6 6 7 9 10 10 11 11 12 13 14 14 14 13 14 15 14 13 13 15 18 20 14 14 14 14 14 13 13 14 14 14 15 15 15 15 14 14
1 2 4 5 6 7 8 9 9 9 10 11 12 13 13 14 12 13 14 12 12 17 15 14 17 22 25 17 13 13 14 14 14 13 13 13 14 14 14 15 14 14 14 14
4 5 6 6 6 8 10 10 9 9 10 12 12 12 12 12 12 11 12 16 18 20 15 17 22 23 22 13 13 13 13 13 13 13 14 13 13 13 13 14 14 14 14 15
5 6 6 7 7 8 10 10 10 11 11 11 12 12 11 10 12 13 14 16 19 20 15 17 21 21 16 13 13 13 13 13 14 14 13 13 13 13 13 13 13 13 13 13
6 6 7 7 8 8 8 8 9 10 10 12 12 11 11 11 13 13 13 15 18 19 16 14 14 15 12 13 13 13 13 13 14 13 13 13 14 14 13 13 15 13 13 12
6 6 6 7 7 7 7 8 10 11 11 12 14 13 13 13 13 14 15 15 14 14 13 13 13 12 12 13 13 13 12 12 12 12 12 12 12 12 13 14 13 12 12 12
Wind_Direction
249 167 186 214 211 201 214 234 249 260 264 268 259 239 221 196 180 174 172 172 172 174 175 180 200 242 281 297 305 310 308 306 305 305 304 302 301 300 299 298 295 295 293 292
219 193 225 248 241 228 231 242 249 262 270 277 269 241 213 193 183 182 180 179 177 178 186 205 235 269 285 294 301 303 301 301 302 301 301 301 301 301 300 298 297 295 293 292
237 174 246 256 244 230 226 227 236 251 264 241 215 216 207 194 187 186 182 179 181 188 201 225 252 275 287 295 299 297 296 298 299 299 299 300 301 300 299 299 298 297 295 293
203 181 236 252 135 219 230 244 236 245 247 204 199 164 175 185 184 180 175 175 180 191 212 234 258 274 285 290 292 293 295 297 299 299 298 299 300 300 300 301 299 298 297 296
193 235 262 266 220 195 214 257 231 231 227 181 147 146 159 169 176 173 167 168 176 200 228 249 267 280 287 290 293 294 296 299 301 300 298 299 299 300 302 302 300 299 298 297
193 222 246 248 138 155 181 264 218 203 189 167 164 188 179 154 154 152 150 158 184 216 243 263 278 286 287 292 296 297 299 300 301 300 298 298 299 301 301 300 299 299 297 297
221 235 257 236 141 158 212 284 150 180 173 170 182 168 124 138 145 152 161 179 208 241 261 275 286 287 286 292 294 299 300 299 298 298 298 299 300 299 300 300 299 299 299 298
205 222 244 158 160 199 244 81 169 173 171 170 153 125 133 146 152 162 176 200 235 263 278 285 286 285 287 292 298 301 300 299 299 300 300 299 299 300 301 302 302 303 303 303
201 216 35 169 200 229 165 185 178 171 168 162 155 160 159 163 170 181 205 234 259 275 286 290 289 286 289 296 302 303 301 300 301 302 300 299 299 301 302 302 301 302 303 303
228 245 230 221 230 227 205 190 166 159 155 158 161 162 167 173 186 206 234 258 272 280 286 293 299 298 295 299 302 301 301 302 303 302 302 301 300 298 298 300 300 300 301 302
235 248 240 230 221 203 172 153 140 133 140 152 153 162 174 186 207 235 260 272 276 281 287 293 299 300 300 303 305 303 302 303 303 302 301 302 301 297 296 292 291 295 298 300
231 211 204 204 185 177 165 161 154 143 139 146 159 167 180 206 235 259 273 280 284 287 291 296 300 301 302 304 305 303 302 303 303 303 302 301 302 301 291 288 293 294 294 296
213 136 169 138 150 167 166 157 152 151 151 155 160 174 196 236 260 272 278 282 286 291 295 298 300 300 303 305 304 300 299 300 300 300 300 301 302 302 304 303 298 298 298 300
166 149 162 170 164 155 147 140 136 133 142 156 167 190 226 258 273 277 281 287 292 294 296 298 299 300 304 306 303 299 298 296 295 295 298 298 299 299 301 304 308 307 305 304
170 182 164 138 132 132 132 135 138 145 154 171 197 230 252 267 278 284 289 294 294 293 295 298 300 301 307 307 303 299 297 295 295 296 296 296 297 298 299 300 302 305 306 307
134 132 140 143 144 144 145 152 162 175 191 220 246 262 272 278 283 287 290 293 295 296 298 300 298 301 306 305 301 298 295 292 295 296 297 297 298 299 300 301 303 304 304 306
151 157 160 160 158 160 166 173 182 197 226 253 271 285 289 289 289 290 294 297 295 293 294 294 295 299 301 299 298 297 297 297 296 295 295 296 297 298 299 301 302 302 301 302
175 162 163 162 162 163 167 176 201 238 260 276 288 290 288 289 291 296 299 301 298 295 294 295 297 301 300 299 298 297 296 295 296 296 296 296 298 299 300 301 301 300 301 302
130 129 129 131 140 152 173 218 254 272 280 285 287 287 289 288 289 292 296 296 295 296 298 302 303 302 299 298 298 296 295 294 294 295 296 298 300 299 299 299 299 300 300 301
109 111 113 114 114 150 241 271 282 284 285 286 286 286 287 289 292 294 295 291 285 287 294 299 301 299 298 299 300 296 293 293 295 298 299 299 299 300 300 299 299 299 300 300
112 112 112 119 272 276 276 281 283 284 288 287 282 282 286 290 292 292 292 293 293 297 300 300 299 298 300 301 300 296 294 295 296 298 299 299 299 299 299 299 299 299 300 299
124 147 246 273 280 285 286 285 281 281 284 283 281 281 285 289 292 291 283 282 291 297 301 298 297 298 303 304 300 297 296 297 297 297 297 297 298 298 298 299 300 300 299 299
246 263 272 275 280 285 288 285 279 277 278 280 283 285 286 289 292 291 293 294 297 299 301 296 298 302 305 305 299 298 298 298 297 297 296 296 296 296 297 299 299 299 299 299
269 272 274 279 281 279 282 286 285 282 280 282 279 277 281 288 289 285 285 293 298 299 298 296 300 303 306 303 299 298 297 297 297 296 295 295 295 296 297 298 298 298 298 299
270 272 273 275 278 279 282 288 290 288 287 287 287 286 282 279 284 292 294 295 298 300 299 299 301 303 304 298 297 296 296 294 294 296 296 298 298 298 297 298 299 299 299 298
272 276 277 275 274 279 283 286 287 291 293 294 295 296 295 292 290 292 294 296 298 298 299 298 299 300 298 297 296 296 296 297 297 297 296 296 296 297 297 298 299 298 297 297
278 277 279 281 278 275 278 281 285 288 291 292 295 297 297 297 296 297 297 297 298 298 298 298 299 299 298 297 297 296 296 297 297 296 297 297 296 296 296 297 298 297 297 296
Height
1509 1512 1513 1512 1514 1519 1517 1509 1508 1499 1498 1496 1499 1504 1506 1509 1512 1515 1517 1520 1522 1523 1524 1524 1524 1523 1522 1521 1519 1517 1514 1511 1508 1504 1500 1495 1490 1484 1479 1473 1467 1461 1454 1448
1512 1516 1515 1515 1510 1510 1510 1506 1502 1499 1496 1494 1499 1502 1504 1506 1509 1511 1514 1517 1519 1520 1521 1521 1520 1520 1518 1517 1515 1512 1509 1506 1502 1498 1493 1488 1482 1477 1471 1465 1458 1452 1445 1438
1508 1517 1515 1508 1497 1499 1501 1498 1497 1496 1492 1495 1498 1500 1501 1503 1506 1509 1512 1514 1516 1517 1517 1517 1517 1516 1514 1512 1510 1507 1504 1500 1496 1491 1486 1481 1475 1469 1462 1456 1449 1443 1436 1429
1508 1515 1516 1490 1493 1494 1494 1492 1492 1492 1493 1496 1497 1499 1500 1502 1505 1507 1510 1512 1513 1514 1514 1514 1513 1512 1510 1508 1505 1502 1499 1494 1490 1484 1478 1473 1467 1461 1454 1448 1441 1434 1427 1420
1509 1505 1496 1489 1491 1493 1493 1488 1487 1489 1491 1496 1497 1499 1501 1501 1504 1506 1508 1510 1510 1511 1511 1510 1509 1508 1506 1503 1500 1497 1492 1488 1483 1477 1471 1465 1459 1452 1446 1439 1432 1425 1418 1411
1508 1507 1500 1483 1489 1490 1492 1487 1484 1486 1489 1493 1496 1497 1498 1500 1502 1504 1506 1507 1507 1507 1507 1506 1505 1503 1501 1498 1495 1491 1486 1481 1476 1470 1464 1457 1451 1444 1437 1430 1423 1415 1408 1402
1498 1498 1485 1482 1488 1490 1491 1481 1484 1485 1487 1491 1493 1494 1497 1499 1501 1502 1503 1504 1504 1504 1504 1503 1501 1499 1496 1492 1488 1484 1479 1473 1468 1462 1456 1449 1442 1436 1429 1422 1414 1407 1400 1393
1492 1494 1488 1484 1486 1485 1480 1482 1482 1484 1486 1490 1492 1494 1495 1497 1499 1500 1501 1501 1501 1501 1500 1499 1496 1493 1490 1486 1482 1477 1471 1465 1460 1454 1448 1441 1434 1428 1421 1414 1406 1399 1392 1385
1480 1478 1479 1480 1480 1480 1481 1481 1482 1483 1486 1488 1490 1492 1494 1495 1496 1497 1498 1498 1498 1497 1496 1494 1491 1488 1483 1479 1474 1469 1463 1457 1452 1446 1440 1434 1427 1420 1413 1407 1400 1392 1385 1378
1479 1475 1477 1478 1478 1478 1479 1480 1481 1482 1485 1487 1489 1490 1492 1493 1494 1495 1495 1495 1494 1493 1490 1488 1486 1482 1477 1472 1466 1461 1455 1449 1443 1437 1431 1425 1419 1413 1406 1400 1393 1386 1379 1372
1474 1473 1475 1474 1474 1475 1476 1478 1480 1481 1483 1485 1487 1488 1489 1490 1491 1492 1492 1491 1489 1488 1485 1482 1478 1474 1470 1465 1459 1453 1447 1441 1435 1429 1423 1417 1411 1405 1399 1393 1388 1381 1373 1367
1467 1468 1470 1471 1471 1472 1474 1476 1478 1480 1482 1483 1485 1486 1487 1488 1488 1488 1488 1486 1484 1482 1479 1475 1471 1467 1462 1457 1451 1445 1438 1433 1427 1421 1415 1409 1402 1395 1390 1385 1379 1373 1367 1361
1465 1465 1467 1468 1469 1471 1472 1474 1476 1478 1480 1481 1482 1484 1484 1485 1485 1484 1483 1481 1479 1475 1472 1467 1463 1458 1454 1449 1443 1437 1431 1425 1419 1413 1408 1401 1395 1387 1379 1374 1370 1364 1358 1352
1462 1464 1465 1466 1467 1469 1471 1473 1475 1476 1478 1479 1480 1481 1481 1481 1481 1480 1478 1475 1472 1468 1464 1460 1455 1450 1446 1440 1434 1428 1423 1417 1412 1406 1401 1394 1388 1382 1375 1367 1359 1353 1348 1343
1459 1461 1463 1464 1466 1467 1469 1471 1473 1475 1476 1477 1478 1478 1478 1477 1476 1474 1472 1469 1465 1461 1456 1452 1447 1442 1437 1431 1426 1420 1415 1410 1405 1399 1393 1388 1382 1375 1369 1362 1355 1347 1340 1334
1457 1459 1461 1463 1464 1466 1468 1470 1471 1473 1474 1475 1475 1475 1474 1472 1470 1468 1465 1462 1457 1453 1448 1443 1438 1433 1428 1423 1417 1412 1407 1402 1397 1392 1386 1380 1375 1369 1362 1356 1349 1342 1335 1328
1455 1457 1459 1461 1463 1465 1467 1468 1470 1471 1471 1471 1471 1470 1469 1466 1464 1461 1458 1454 1450 1445 1440 1435 1430 1425 1420 1415 1410 1404 1399 1394 1389 1384 1379 1373 1367 1361 1355 1349 1342 1335 1329 1323
1454 1456 1458 1460 1462 1464 1466 1467 1468 1468 1468 1468 1466 1465 1463 1460 1457 1453 1449 1445 1441 1436 1432 1427 1422 1416 1412 1407 1402 1397 1392 1387 1382 1377 1371 1366 1360 1355 1349 1342 1335 1329 1322 1317
1453 1455 1458 1460 1461 1463 1464 1465 1465 1465 1464 1463 1461 1459 1456 1453 1449 1445 1441 1437 1432 1427 1422 1419 1414 1409 1404 1399 1395 1390 1384 1379 1374 1369 1364 1358 1353 1347 1341 1335 1329 1322 1317 1311
1454 1456 1458 1459 1461 1462 1462 1462 1461 1460 1459 1457 1455 1452 1448 1445 1442 1437 1433 1428 1424 1420 1414 1409 1405 1400 1395 1391 1387 1382 1377 1372 1367 1361 1356 1351 1345 1339 1333 1328 1322 1316 1311 1305
1455 1456 1458 1458 1459 1459 1459 1458 1456 1455 1453 1451 1448 1444 1441 1437 1434 1429 1424 1419 1415 1412 1406 1401 1397 1392 1388 1383 1379 1374 1369 1364 1359 1354 1348 1343 1337 1331 1326 1320 1315 1310 1304 1299
1455 1455 1456 1456 1456 1455 1454 1453 1451 1449 1446 1444 1441 1437 1433 1429 1425 1420 1416 1412 1406 1402 1397 1393 1388 1384 1380 1376 1371 1366 1361 1356 1351 1346 1340 1335 1329 1324 1319 1314 1308 1303 1298 1293
1453 1453 1453 1452 1451 1450 1449 1447 1445 1442 1439 1436 1433 1429 1425 1421 1417 1412 1406 1402 1398 1393 1389 1384 1380 1376 1372 1367 1362 1357 1352 1347 1342 1337 1332 1327 1322 1317 1312 1307 1302 1297 1292 1287
1450 1450 1449 1448 1446 1444 1442 1440 1438 1435 1432 1428 1425 1421 1417 1412 1407 1403 1398 1393 1389 1384 1380 1375 1371 1367 1362 1357 1353 1348 1343 1339 1334 1329 1324 1320 1315 1310 1305 1300 1295 1290 1286 1281
1446 1445 1444 1442 1440 1438 1436 1433 1430 1427 1423 1419 1416 1412 1408 1404 1399 1393 1389 1384 1379 1375 1370 1365 1361 1357 1353 1348 1344 1339 1335 1330 1326 1322 1317 1312 1308 1303 1298 1294 1289 1284 1280 1276
1441 1440 1438 1437 1434 1432 1429 1425 1422 1418 1414 1410 1406 1402 1399 1394 1390 1385 1380 1375 1370 1366 1361 1356 1352 1347 1343 1339 1335 1331 1326 1322 1318 1313 1309 1305 1300 1296 1291 1287 1283 1278 1274 1270
1436 1434 1432 1430 1427 1425 1421 1418 1414 1410 1406 1402 1397 1393 1389 1385 1380 1376 1371 1366 1361 1357 1352 1348 1343 1339 1335 1331 1327 1323 1319 1315 1310 1306 1302 1298 1294 1289 1285 1281 1277 1273 1269 1265